Time,TemperatureF,DewpointF,PressureIn,WindDirection,WindDirectionDegrees,WindSpeedMPH,WindSpeedGustMPH,Humidity,HourlyPrecipIn,Conditions,Clouds,dailyrainin,SoftwareType,DateUTC
2013-02-11 00:00:00,55.5,43.9,29.78,SSE,158,0.0,0.0,65,0.00,,,0.54,WUHU216HW,2013-02-11 06:00:00,
2013-02-11 00:05:00,55.7,44.5,29.78,SSE,158,0.0,0.0,66,0.00,,,0.54,WUHU216HW,2013-02-11 06:05:00,
2013-02-11 00:10:00,55.5,44.3,29.77,ENE,68,0.0,0.0,66,0.00,,,0.00,WUHU216HW,2013-02-11 06:10:00,
2013-02-11 00:15:00,55.5,44.3,29.77,ENE,68,0.0,0.0,66,0.00,,,0.00,WUHU216HW,2013-02-11 06:15:00,
2013-02-11 00:20:00,55.5,43.9,29.76,NE,45,0.0,0.0,65,0.00,,,0.00,WUHU216HW,2013-02-11 06:20:00,
2013-02-11 00:25:00,55.4,43.7,29.76,North,0,0.0,0.0,65,0.00,,,0.00,WUHU216HW,2013-02-11 06:25:00,
2013-02-11 00:30:00,55.2,43.1,29.76,NW,315,0.0,0.0,64,0.00,,,0.00,WUHU216HW,2013-02-11 06:30:00,
2013-02-11 00:35:00,55.2,42.7,29.76,East,90,0.0,0.0,63,0.00,,,0.00,WUHU216HW,2013-02-11 06:35:00,
2013-02-11 00:40:00,55.2,42.7,29.77,ESE,113,0.0,0.0,63,0.00,,,0.00,WUHU216HW,2013-02-11 06:40:00,
2013-02-11 00:45:00,55.2,42.3,29.78,ESE,113,0.0,0.0,62,0.00,,,0.00,WUHU216HW,2013-02-11 06:45:00,
2013-02-11 00:50:00,55.2,42.3,29.77,NNE,23,0.0,0.0,62,0.00,,,0.00,WUHU216HW,2013-02-11 06:50:00,
2013-02-11 00:55:00,55.2,42.7,29.78,NNE,23,0.0,0.0,63,0.00,,,0.00,WUHU216HW,2013-02-11 06:55:00,
2013-02-11 01:00:00,55.2,42.7,29.78,NNE,23,0.0,0.0,63,0.00,,,0.00,WUHU216HW,2013-02-11 07:00:00,
2013-02-11 01:05:00,55.2,43.1,29.77,NNE,23,0.0,0.0,64,0.00,,,0.00,WUHU216HW,2013-02-11 07:05:00,
2013-02-11 01:10:00,55.2,43.1,29.77,NNE,23,0.0,0.0,64,0.00,,,0.00,WUHU216HW,2013-02-11 07:10:00,
2013-02-11 01:15:00,55.2,43.1,29.78,NNE,23,0.0,0.0,64,0.00,,,0.00,WUHU216HW,2013-02-11 07:15:00,
2013-02-11 01:20:00,55.2,43.1,29.78,NNE,23,0.0,0.0,64,0.00,,,0.00,WUHU216HW,2013-02-11 07:20:00,
2013-02-11 01:25:00,55.2,43.6,29.78,NNE,23,0.0,0.0,65,0.00,,,0.00,WUHU216HW,2013-02-11 07:25:00,
2013-02-11 01:30:00,55.0,43.8,29.77,SE,135,0.0,0.0,66,0.00,,,0.00,WUHU216HW,2013-02-11 07:30:00,
2013-02-11 01:35:00,54.8,43.6,29.77,SE,135,0.0,0.0,66,0.00,,,0.00,WUHU216HW,2013-02-11 07:35:00,
2013-02-11 01:40:00,54.6,43.9,29.77,SE,135,0.0,0.0,67,0.00,,,0.00,WUHU216HW,2013-02-11 07:40:00,
2013-02-11 01:45:00,54.8,43.6,29.77,ESE,113,0.0,0.0,66,0.00,,,0.00,WUHU216HW,2013-02-11 07:45:00,
2013-02-11 01:50:00,54.6,43.5,29.76,ESE,113,0.0,0.6,66,0.00,,,0.00,WUHU216HW,2013-02-11 07:50:00,
2013-02-11 01:55:00,54.6,43.1,29.76,ESE,113,0.0,0.6,65,0.00,,,0.00,WUHU216HW,2013-02-11 07:55:00,
2013-02-11 02:00:00,54.6,43.5,29.76,NE,45,0.0,0.0,66,0.00,,,0.00,WUHU216HW,2013-02-11 08:00:00,
2013-02-11 02:05:00,54.6,43.5,29.76,NE,45,0.0,0.0,66,0.00,,,0.00,WUHU216HW,2013-02-11 08:05:00,
2013-02-11 02:10:00,54.5,43.7,29.77,NE,45,0.0,0.0,67,0.00,,,0.00,WUHU216HW,2013-02-11 08:10:00,
2013-02-11 02:15:00,54.5,44.1,29.76,NE,45,0.0,0.0,68,0.00,,,0.00,WUHU216HW,2013-02-11 08:15:00,
2013-02-11 02:20:00,54.5,44.1,29.76,NE,45,0.0,0.0,68,0.00,,,0.00,WUHU216HW,2013-02-11 08:20:00,
2013-02-11 02:25:00,54.5,44.1,29.77,NE,45,0.0,0.0,68,0.00,,,0.00,WUHU216HW,2013-02-11 08:25:00,
2013-02-11 02:30:00,54.5,43.7,29.78,ESE,113,0.0,0.0,67,0.00,,,0.00,WUHU216HW,2013-02-11 08:30:00,
2013-02-11 02:35:00,54.5,43.7,29.78,ESE,113,0.0,0.0,67,0.00,,,0.00,WUHU216HW,2013-02-11 08:35:00,
2013-02-11 02:40:00,54.5,44.1,29.78,ESE,113,0.0,0.0,68,0.00,,,0.00,WUHU216HW,2013-02-11 08:40:00,
2013-02-11 02:45:00,54.5,44.3,29.77,ESE,113,0.0,0.0,69,0.00,,,0.00,WUHU216HW,2013-02-11 08:45:00,
2013-02-11 02:50:00,54.3,44.3,29.78,ESE,113,0.0,0.0,69,0.00,,,0.00,WUHU216HW,2013-02-11 08:50:00,
2013-02-11 02:55:00,54.3,44.3,29.76,NE,45,2.0,2.0,69,0.00,,,0.00,WUHU216HW,2013-02-11 08:55:00,
2013-02-11 03:00:00,54.3,43.9,29.75,NNE,23,0.0,2.0,68,0.00,,,0.00,WUHU216HW,2013-02-11 09:00:00,
2013-02-11 03:05:00,54.3,43.9,29.75,NNE,23,0.0,0.0,68,0.00,,,0.00,WUHU216HW,2013-02-11 09:05:00,
2013-02-11 03:10:00,54.1,43.7,29.76,NNE,23,0.0,0.0,68,0.00,,,0.00,WUHU216HW,2013-02-11 09:10:00,
2013-02-11 03:15:00,53.9,43.6,29.75,NNE,23,0.0,0.0,68,0.00,,,0.00,WUHU216HW,2013-02-11 09:15:00,
2013-02-11 03:20:00,53.9,43.2,29.76,NNE,23,0.0,0.0,67,0.00,,,0.00,WUHU216HW,2013-02-11 09:20:00,
2013-02-11 03:25:00,53.7,43.4,29.75,NNE,23,0.0,0.0,68,0.00,,,0.00,WUHU216HW,2013-02-11 09:25:00,
2013-02-11 03:30:00,53.7,43.4,29.75,NNE,23,0.0,0.0,68,0.00,,,0.00,WUHU216HW,2013-02-11 09:30:00,
2013-02-11 03:35:00,53.4,43.0,29.76,NNE,23,0.0,0.0,68,0.00,,,0.00,WUHU216HW,2013-02-11 09:35:00,
2013-02-11 03:40:00,53.4,43.0,29.77,NNE,23,0.0,0.0,68,0.00,,,0.00,WUHU216HW,2013-02-11 09:40:00,
2013-02-11 03:45:00,53.4,43.4,29.77,NNE,23,0.0,0.0,69,0.00,,,0.00,WUHU216HW,2013-02-11 09:45:00,
2013-02-11 03:50:00,53.4,43.8,29.77,NNE,23,0.0,0.0,70,0.00,,,0.00,WUHU216HW,2013-02-11 09:50:00,
2013-02-11 03:55:00,53.4,43.8,29.77,NNE,23,0.0,0.0,70,0.00,,,0.00,WUHU216HW,2013-02-11 09:55:00,
2013-02-11 04:00:00,53.4,43.8,29.75,NNE,23,0.0,0.0,70,0.00,,,0.00,WUHU216HW,2013-02-11 10:00:00,
2013-02-11 04:05:00,53.4,43.8,29.75,NNE,23,0.0,0.0,70,0.00,,,0.00,WUHU216HW,2013-02-11 10:05:00,
2013-02-11 04:10:00,53.4,43.8,29.74,NNE,23,0.0,0.0,70,0.00,,,0.00,WUHU216HW,2013-02-11 10:10:00,
2013-02-11 04:15:00,53.4,43.8,29.74,NNE,23,0.0,0.0,70,0.00,,,0.00,WUHU216HW,2013-02-11 10:15:00,
2013-02-11 04:20:00,53.6,43.6,29.74,East,90,0.0,0.0,69,0.00,,,0.00,WUHU216HW,2013-02-11 10:20:00,
2013-02-11 04:25:00,53.4,43.4,29.74,East,90,0.0,0.0,69,0.00,,,0.00,WUHU216HW,2013-02-11 10:25:00,
2013-02-11 04:30:00,53.4,43.4,29.76,East,90,0.0,0.0,69,0.00,,,0.00,WUHU216HW,2013-02-11 10:30:00,
2013-02-11 04:35:00,53.2,42.9,29.75,East,90,0.0,0.0,68,0.00,,,0.00,WUHU216HW,2013-02-11 10:35:00,
2013-02-11 04:40:00,53.0,43.1,29.76,East,90,0.0,0.0,69,0.00,,,0.00,WUHU216HW,2013-02-11 10:40:00,
2013-02-11 04:45:00,52.8,42.9,29.76,East,90,0.0,0.0,69,0.00,,,0.00,WUHU216HW,2013-02-11 10:45:00,
2013-02-11 04:50:00,52.3,42.9,29.76,East,90,0.0,0.0,70,0.00,,,0.00,WUHU216HW,2013-02-11 10:50:00,
2013-02-11 04:55:00,52.1,42.7,29.76,East,90,0.0,0.0,70,0.00,,,0.00,WUHU216HW,2013-02-11 10:55:00,
2013-02-11 05:00:00,51.8,42.4,29.76,East,90,0.0,0.0,70,0.00,,,0.00,WUHU216HW,2013-02-11 11:00:00,
2013-02-11 05:05:00,51.6,42.2,29.77,East,90,0.0,0.0,70,0.00,,,0.00,WUHU216HW,2013-02-11 11:05:00,
2013-02-11 05:10:00,51.6,42.2,29.77,East,90,0.0,0.0,70,0.00,,,0.00,WUHU216HW,2013-02-11 11:10:00,
2013-02-11 05:15:00,51.4,42.4,29.78,East,90,0.0,0.0,71,0.00,,,0.00,WUHU216HW,2013-02-11 11:15:00,
2013-02-11 05:20:00,51.4,42.4,29.77,East,90,0.0,0.0,71,0.00,,,0.00,WUHU216HW,2013-02-11 11:20:00,
2013-02-11 05:25:00,51.2,42.5,29.78,East,90,0.0,0.0,72,0.00,,,0.00,WUHU216HW,2013-02-11 11:25:00,
2013-02-11 05:30:00,51.2,42.7,29.78,East,90,0.0,0.0,72,0.00,,,0.00,WUHU216HW,2013-02-11 11:30:00,
2013-02-11 05:35:00,51.4,42.7,29.78,East,90,0.0,0.0,72,0.00,,,0.00,WUHU216HW,2013-02-11 11:35:00,
2013-02-11 05:40:00,51.6,43.2,29.78,East,90,0.0,0.0,73,0.00,,,0.00,WUHU216HW,2013-02-11 11:40:00,
2013-02-11 05:45:00,51.6,43.2,29.77,ENE,68,0.0,0.0,73,0.00,,,0.00,WUHU216HW,2013-02-11 11:45:00,
2013-02-11 05:50:00,51.6,43.6,29.78,North,0,0.0,0.0,74,0.00,,,0.00,WUHU216HW,2013-02-11 11:50:00,
2013-02-11 05:55:00,51.6,43.6,29.78,NW,315,0.0,0.0,74,0.00,,,0.00,WUHU216HW,2013-02-11 11:55:00,
2013-02-11 06:00:00,51.8,43.8,29.78,NW,315,0.0,0.0,74,0.00,,,0.00,WUHU216HW,2013-02-11 12:00:00,
2013-02-11 06:05:00,51.8,43.4,29.78,NW,315,0.0,0.0,73,0.00,,,0.00,WUHU216HW,2013-02-11 12:05:00,
2013-02-11 06:10:00,51.9,43.6,29.78,NW,315,0.0,0.0,73,0.00,,,0.00,WUHU216HW,2013-02-11 12:10:00,
2013-02-11 06:15:00,51.9,43.6,29.78,NW,315,0.0,0.0,73,0.00,,,0.00,WUHU216HW,2013-02-11 12:15:00,
2013-02-11 06:20:00,52.1,43.4,29.79,NW,315,0.0,0.0,72,0.00,,,0.00,WUHU216HW,2013-02-11 12:20:00,
2013-02-11 06:25:00,52.3,43.2,29.79,NW,315,0.0,0.0,71,0.00,,,0.00,WUHU216HW,2013-02-11 12:25:00,
2013-02-11 06:30:00,52.3,43.6,29.78,NW,315,0.0,0.0,72,0.00,,,0.00,WUHU216HW,2013-02-11 12:30:00,
2013-02-11 06:35:00,52.5,44.1,29.79,NW,315,0.0,0.0,73,0.00,,,0.00,WUHU216HW,2013-02-11 12:35:00,
2013-02-11 06:40:00,52.5,44.1,29.79,WSW,248,0.0,0.0,73,0.00,,,0.00,WUHU216HW,2013-02-11 12:40:00,
2013-02-11 06:45:00,52.5,44.4,29.79,West,270,0.0,0.0,74,0.00,,,0.00,WUHU216HW,2013-02-11 12:45:00,
2013-02-11 06:50:00,52.5,44.4,29.80,WSW,248,0.0,0.0,74,0.00,,,0.00,WUHU216HW,2013-02-11 12:50:00,
2013-02-11 06:55:00,52.5,44.4,29.79,WNW,293,0.8,1.3,74,0.00,,,0.00,WUHU216HW,2013-02-11 12:55:00,
2013-02-11 07:00:00,52.5,44.8,29.79,WNW,293,2.0,2.0,75,0.00,,,0.00,WUHU216HW,2013-02-11 13:00:00,
2013-02-11 07:05:00,52.5,44.8,29.78,WNW,293,1.7,2.0,75,0.00,,,0.00,WUHU216HW,2013-02-11 13:05:00,
2013-02-11 07:10:00,52.7,44.6,29.79,WNW,293,2.0,2.0,74,0.00,,,0.00,WUHU216HW,2013-02-11 13:10:00,
2013-02-11 07:15:00,52.8,44.4,29.80,West,270,0.8,2.6,73,0.00,,,0.00,WUHU216HW,2013-02-11 13:15:00,
2013-02-11 07:20:00,52.8,44.4,29.80,NW,315,0.0,2.6,73,0.00,,,0.00,WUHU216HW,2013-02-11 13:20:00,
2013-02-11 07:25:00,52.8,44.4,29.79,NW,315,0.0,2.0,73,0.00,,,0.00,WUHU216HW,2013-02-11 13:25:00,
2013-02-11 07:30:00,52.8,43.7,29.79,NW,315,0.0,0.0,71,0.00,,,0.00,WUHU216HW,2013-02-11 13:30:00,
2013-02-11 07:35:00,53.0,43.9,29.79,NW,315,0.0,0.0,71,0.00,,,0.00,WUHU216HW,2013-02-11 13:35:00,
2013-02-11 07:40:00,53.2,44.0,29.79,NW,315,0.0,0.0,71,0.00,,,0.00,WUHU216HW,2013-02-11 13:40:00,
2013-02-11 07:45:00,53.2,43.7,29.80,NW,315,0.0,0.0,70,0.00,,,0.00,WUHU216HW,2013-02-11 13:45:00,
2013-02-11 07:50:00,53.4,43.8,29.80,NW,315,0.0,0.0,70,0.00,,,0.00,WUHU216HW,2013-02-11 13:50:00,
2013-02-11 07:55:00,53.4,43.8,29.80,NW,315,0.0,0.0,70,0.00,,,0.00,WUHU216HW,2013-02-11 13:55:00,
2013-02-11 08:00:00,53.6,44.0,29.80,NW,315,0.0,0.0,70,0.00,,,0.00,WUHU216HW,2013-02-11 14:00:00,
2013-02-11 08:05:00,53.7,44.2,29.80,NW,315,0.0,0.0,70,0.00,,,0.00,WUHU216HW,2013-02-11 14:05:00,
2013-02-11 08:10:00,53.9,44.4,29.80,NW,315,0.0,0.0,70,0.00,,,0.00,WUHU216HW,2013-02-11 14:10:00,
2013-02-11 08:15:00,54.6,44.7,29.80,NW,315,0.0,0.0,69,0.00,,,0.00,WUHU216HW,2013-02-11 14:15:00,
2013-02-11 08:20:00,55.2,45.2,29.80,NW,315,0.0,0.0,69,0.00,,,0.00,WUHU216HW,2013-02-11 14:20:00,
2013-02-11 08:25:00,55.5,45.1,29.80,NW,315,0.0,0.0,68,0.00,,,0.00,WUHU216HW,2013-02-11 14:25:00,
2013-02-11 08:30:00,55.7,44.5,29.80,ESE,113,0.0,0.0,66,0.00,,,0.00,WUHU216HW,2013-02-11 14:30:00,
2013-02-11 08:35:00,55.7,44.5,29.80,ESE,113,0.0,0.0,66,0.00,,,0.00,WUHU216HW,2013-02-11 14:35:00,
2013-02-11 08:40:00,55.7,44.1,29.81,ESE,113,0.6,1.5,65,0.00,,,0.00,WUHU216HW,2013-02-11 14:40:00,
2013-02-11 08:45:00,55.7,43.7,29.81,ESE,113,0.0,1.5,64,0.00,,,0.00,WUHU216HW,2013-02-11 14:45:00,
2013-02-11 08:50:00,55.9,43.0,29.81,ESE,113,2.0,2.0,62,0.00,,,0.00,WUHU216HW,2013-02-11 14:50:00,
2013-02-11 08:55:00,55.9,43.0,29.81,ESE,113,2.2,2.6,62,0.00,,,0.00,WUHU216HW,2013-02-11 14:55:00,
2013-02-11 09:00:00,56.1,42.8,29.81,ESE,113,0.0,4.6,61,0.00,,,0.00,WUHU216HW,2013-02-11 15:00:00,
2013-02-11 09:05:00,56.3,43.0,29.81,East,90,2.0,4.6,61,0.00,,,0.00,WUHU216HW,2013-02-11 15:05:00,
2013-02-11 09:10:00,56.4,43.1,29.80,ENE,68,2.2,2.2,61,0.00,,,0.00,WUHU216HW,2013-02-11 15:10:00,
2013-02-11 09:15:00,56.8,43.9,29.81,East,90,0.0,2.2,62,0.00,,,0.00,WUHU216HW,2013-02-11 15:15:00,
2013-02-11 09:20:00,56.8,43.5,29.81,ESE,113,0.4,0.4,61,0.00,,,0.00,WUHU216HW,2013-02-11 15:20:00,
2013-02-11 09:25:00,57.0,43.7,29.81,East,90,0.0,0.4,61,0.00,,,0.00,WUHU216HW,2013-02-11 15:25:00,
2013-02-11 09:30:00,57.3,44.4,29.81,ESE,113,0.6,0.6,62,0.00,,,0.00,WUHU216HW,2013-02-11 15:30:00,
2013-02-11 09:35:00,57.5,44.2,29.82,ESE,113,0.0,0.6,61,0.00,,,0.00,WUHU216HW,2013-02-11 15:35:00,
2013-02-11 09:40:00,57.9,44.1,29.82,ESE,113,0.0,0.6,60,0.00,,,0.00,WUHU216HW,2013-02-11 15:40:00,
2013-02-11 09:45:00,57.9,43.7,29.82,ESE,113,0.0,0.0,59,0.00,,,0.00,WUHU216HW,2013-02-11 15:45:00,
2013-02-11 09:50:00,57.9,44.1,29.82,NE,45,0.0,0.0,60,0.00,,,0.00,WUHU216HW,2013-02-11 15:50:00,
2013-02-11 09:55:00,57.9,44.1,29.81,ENE,68,0.0,0.0,60,0.00,,,0.00,WUHU216HW,2013-02-11 15:55:00,
2013-02-11 10:00:00,57.7,44.0,29.81,ENE,68,0.0,0.0,60,0.00,,,0.00,WUHU216HW,2013-02-11 16:00:00,
2013-02-11 10:05:00,57.9,44.1,29.82,NE,45,0.0,0.0,60,0.00,,,0.00,WUHU216HW,2013-02-11 16:05:00,
2013-02-11 10:10:00,57.7,44.0,29.84,NE,45,0.0,0.0,60,0.00,,,0.00,WUHU216HW,2013-02-11 16:10:00,
2013-02-11 10:15:00,57.5,44.6,29.83,NE,45,0.0,0.0,62,0.00,,,0.00,WUHU216HW,2013-02-11 16:15:00,
2013-02-11 10:20:00,57.3,45.6,29.83,NNE,23,0.0,0.0,65,0.02,,,0.02,WUHU216HW,2013-02-11 16:20:00,
2013-02-11 10:25:00,57.3,46.4,29.83,NNE,23,0.0,0.0,67,0.04,,,0.04,WUHU216HW,2013-02-11 16:25:00,
2013-02-11 10:30:00,57.7,46.8,29.84,NW,315,0.0,0.0,67,0.04,,,0.04,WUHU216HW,2013-02-11 16:30:00,
2013-02-11 10:35:00,57.7,46.8,29.84,NW,315,0.0,0.0,67,0.04,,,0.04,WUHU216HW,2013-02-11 16:35:00,
2013-02-11 10:40:00,57.3,46.0,29.85,West,270,0.0,1.7,66,0.04,,,0.04,WUHU216HW,2013-02-11 16:40:00,
2013-02-11 10:45:00,56.8,45.9,29.84,NE,45,0.0,1.7,67,0.04,,,0.04,WUHU216HW,2013-02-11 16:45:00,
2013-02-11 10:50:00,56.4,45.6,29.84,NE,45,0.0,0.0,67,0.04,,,0.04,WUHU216HW,2013-02-11 16:50:00,
2013-02-11 10:55:00,56.4,45.6,29.85,WNW,293,0.0,0.0,67,0.04,,,0.04,WUHU216HW,2013-02-11 16:55:00,
2013-02-11 11:00:00,56.1,45.2,29.84,NNE,23,0.8,1.1,67,0.04,,,0.04,WUHU216HW,2013-02-11 17:00:00,
2013-02-11 11:05:00,56.1,44.8,29.84,NNE,23,7.1,7.1,66,0.04,,,0.04,WUHU216HW,2013-02-11 17:05:00,
2013-02-11 11:10:00,56.3,45.4,29.84,NNW,338,2.6,7.1,67,0.04,,,0.04,WUHU216HW,2013-02-11 17:10:00,
2013-02-11 11:15:00,56.1,45.2,29.84,NNW,338,4.2,7.1,67,0.02,,,0.04,WUHU216HW,2013-02-11 17:15:00,
2013-02-11 11:20:00,56.1,44.8,29.82,NE,45,1.5,6.9,66,0.02,,,0.04,WUHU216HW,2013-02-11 17:20:00,
2013-02-11 11:25:00,56.3,45.4,29.83,ENE,68,0.0,6.9,67,0.00,,,0.04,WUHU216HW,2013-02-11 17:25:00,
2013-02-11 11:30:00,56.1,45.6,29.84,NNE,23,0.0,0.0,68,0.00,,,0.04,WUHU216HW,2013-02-11 17:30:00,
2013-02-11 11:35:00,56.3,45.8,29.81,North,0,2.0,2.0,68,0.00,,,0.04,WUHU216HW,2013-02-11 17:35:00,
2013-02-11 11:40:00,56.8,46.3,29.82,North,0,1.1,2.0,68,0.00,,,0.04,WUHU216HW,2013-02-11 17:40:00,
2013-02-11 11:45:00,57.5,47.0,29.83,NE,45,0.0,2.4,68,0.00,,,0.04,WUHU216HW,2013-02-11 17:45:00,
2013-02-11 11:50:00,57.7,46.8,29.83,NNW,338,0.0,2.4,67,0.00,,,0.04,WUHU216HW,2013-02-11 17:50:00,
2013-02-11 11:55:00,57.9,46.9,29.83,WNW,293,0.0,2.6,67,0.00,,,0.04,WUHU216HW,2013-02-11 17:55:00,
2013-02-11 12:00:00,57.7,46.4,29.87,WSW,248,6.0,6.0,66,0.00,,,0.04,WUHU216HW,2013-02-11 18:00:00,
2013-02-11 12:05:00,56.8,47.1,29.90,WSW,248,7.1,10.7,70,0.00,,,0.04,WUHU216HW,2013-02-11 18:05:00,
2013-02-11 12:10:00,55.9,46.6,29.85,NNW,338,0.0,10.7,71,0.00,,,0.04,WUHU216HW,2013-02-11 18:10:00,
2013-02-11 12:15:00,55.4,46.5,29.84,NNE,23,2.0,7.1,72,0.02,,,0.04,WUHU216HW,2013-02-11 18:15:00,
2013-02-11 12:20:00,55.4,46.8,29.84,North,0,0.0,2.0,73,0.02,,,0.06,WUHU216HW,2013-02-11 18:20:00,
2013-02-11 12:25:00,55.5,47.3,29.83,NE,45,1.1,2.0,74,0.02,,,0.06,WUHU216HW,2013-02-11 18:25:00,
2013-02-11 12:30:00,56.1,48.2,29.82,East,90,0.0,2.2,75,0.02,,,0.06,WUHU216HW,2013-02-11 18:30:00,
2013-02-11 12:35:00,56.8,48.9,29.83,SE,135,2.6,2.6,75,0.02,,,0.06,WUHU216HW,2013-02-11 18:35:00,
2013-02-11 12:40:00,57.0,48.7,29.82,WNW,293,0.0,3.5,74,0.02,,,0.06,WUHU216HW,2013-02-11 18:40:00,
2013-02-11 12:45:00,57.5,48.9,29.83,NNE,23,0.0,3.5,73,0.02,,,0.06,WUHU216HW,2013-02-11 18:45:00,
2013-02-11 12:50:00,57.5,48.5,29.83,North,0,0.0,0.4,72,0.02,,,0.06,WUHU216HW,2013-02-11 18:50:00,
2013-02-11 12:55:00,57.5,48.2,29.82,East,90,1.7,1.7,71,0.02,,,0.06,WUHU216HW,2013-02-11 18:55:00,
2013-02-11 13:00:00,57.7,47.6,29.80,East,90,0.0,6.2,69,0.02,,,0.06,WUHU216HW,2013-02-11 19:00:00,
2013-02-11 13:05:00,57.9,47.7,29.79,ESE,113,0.0,6.2,69,0.02,,,0.06,WUHU216HW,2013-02-11 19:05:00,
2013-02-11 13:10:00,58.1,47.9,29.80,NNE,23,2.4,2.4,69,0.02,,,0.06,WUHU216HW,2013-02-11 19:10:00,
2013-02-11 13:15:00,58.2,47.7,29.79,ESE,113,2.9,4.4,68,0.00,,,0.06,WUHU216HW,2013-02-11 19:15:00,
2013-02-11 13:20:00,58.2,47.7,29.79,SE,135,0.0,4.4,68,0.00,,,0.06,WUHU216HW,2013-02-11 19:20:00,
2013-02-11 13:25:00,58.2,47.7,29.79,NE,45,9.6,9.6,68,0.00,,,0.06,WUHU216HW,2013-02-11 19:25:00,
2013-02-11 13:30:00,58.1,47.5,29.80,ENE,68,0.0,9.6,68,0.00,,,0.06,WUHU216HW,2013-02-11 19:30:00,
2013-02-11 13:35:00,58.2,47.7,29.80,NE,45,0.0,7.1,68,0.00,,,0.06,WUHU216HW,2013-02-11 19:35:00,
2013-02-11 13:40:00,58.2,47.7,29.79,NNW,338,0.0,2.4,68,0.00,,,0.06,WUHU216HW,2013-02-11 19:40:00,
2013-02-11 13:45:00,58.2,47.7,29.79,NNW,338,0.8,2.2,68,0.00,,,0.06,WUHU216HW,2013-02-11 19:45:00,
2013-02-11 13:50:00,58.2,47.7,29.80,WNW,293,0.8,2.2,68,0.00,,,0.06,WUHU216HW,2013-02-11 19:50:00,
2013-02-11 13:55:00,58.1,47.5,29.81,WSW,248,3.1,3.1,68,0.00,,,0.06,WUHU216HW,2013-02-11 19:55:00,
2013-02-11 14:00:00,57.5,48.5,29.81,WSW,248,6.7,6.7,72,0.00,,,0.06,WUHU216HW,2013-02-11 20:00:00,
2013-02-11 14:05:00,57.0,48.0,29.79,NE,45,2.0,6.7,72,0.00,,,0.06,WUHU216HW,2013-02-11 20:05:00,
2013-02-11 14:10:00,56.8,48.2,29.78,NE,45,5.1,6.7,73,0.00,,,0.06,WUHU216HW,2013-02-11 20:10:00,
2013-02-11 14:15:00,56.8,48.2,29.77,NNE,23,3.1,5.1,73,0.00,,,0.06,WUHU216HW,2013-02-11 20:15:00,
2013-02-11 14:20:00,57.0,48.3,29.77,NNE,23,3.5,6.7,73,0.00,,,0.06,WUHU216HW,2013-02-11 20:20:00,
2013-02-11 14:25:00,56.8,47.8,29.77,NNE,23,4.9,6.7,72,0.00,,,0.06,WUHU216HW,2013-02-11 20:25:00,
2013-02-11 14:30:00,56.8,47.8,29.77,NNE,23,3.5,7.1,72,0.00,,,0.06,WUHU216HW,2013-02-11 20:30:00,
2013-02-11 14:35:00,57.0,48.0,29.77,NNE,23,0.0,7.1,72,0.00,,,0.06,WUHU216HW,2013-02-11 20:35:00,
2013-02-11 14:40:00,57.0,48.0,29.78,NE,45,0.0,3.5,72,0.00,,,0.06,WUHU216HW,2013-02-11 20:40:00,
2013-02-11 14:45:00,57.0,48.0,29.77,NNW,338,2.9,2.9,72,0.00,,,0.06,WUHU216HW,2013-02-11 20:45:00,
2013-02-11 14:50:00,57.3,48.0,29.78,NE,45,5.1,5.1,71,0.00,,,0.06,WUHU216HW,2013-02-11 20:50:00,
2013-02-11 14:55:00,57.3,48.0,29.77,NE,45,2.9,5.1,71,0.00,,,0.06,WUHU216HW,2013-02-11 20:55:00,
2013-02-11 15:00:00,57.7,48.2,29.77,NNW,338,1.3,2.9,71,0.00,,,0.06,WUHU216HW,2013-02-11 21:00:00,
2013-02-11 15:05:00,57.9,48.5,29.77,NNW,338,2.0,2.0,71,0.00,,,0.06,WUHU216HW,2013-02-11 21:05:00,
2013-02-11 15:10:00,57.9,48.5,29.78,NW,315,0.0,2.0,71,0.00,,,0.06,WUHU216HW,2013-02-11 21:10:00,
2013-02-11 15:15:00,58.1,48.7,29.77,NW,315,0.0,5.1,71,0.00,,,0.06,WUHU216HW,2013-02-11 21:15:00,
2013-02-11 15:20:00,58.1,48.7,29.77,North,0,2.2,5.1,71,0.00,,,0.06,WUHU216HW,2013-02-11 21:20:00,
2013-02-11 15:25:00,58.1,48.7,29.77,WNW,293,4.4,4.4,71,0.00,,,0.06,WUHU216HW,2013-02-11 21:25:00,
2013-02-11 15:30:00,58.1,48.7,29.77,West,270,0.0,4.6,71,0.00,,,0.06,WUHU216HW,2013-02-11 21:30:00,
2013-02-11 15:35:00,57.9,48.5,29.77,WNW,293,1.5,4.6,71,0.00,,,0.06,WUHU216HW,2013-02-11 21:35:00,
2013-02-11 15:40:00,57.7,48.3,29.77,NNW,338,4.2,4.2,71,0.00,,,0.06,WUHU216HW,2013-02-11 21:40:00,
2013-02-11 15:45:00,57.3,48.3,29.77,NW,315,0.8,4.2,72,0.00,,,0.06,WUHU216HW,2013-02-11 21:45:00,
2013-02-11 15:50:00,57.0,48.0,29.77,NW,315,1.1,3.5,72,0.00,,,0.06,WUHU216HW,2013-02-11 21:50:00,
2013-02-11 15:55:00,56.8,48.2,29.77,NW,315,0.0,4.0,73,0.00,,,0.06,WUHU216HW,2013-02-11 21:55:00,
2013-02-11 16:00:00,56.8,48.2,29.77,ESE,113,2.0,4.0,73,0.00,,,0.06,WUHU216HW,2013-02-11 22:00:00,
2013-02-11 16:05:00,56.4,47.8,29.77,NW,315,1.7,2.0,73,0.00,,,0.06,WUHU216HW,2013-02-11 22:05:00,
2013-02-11 16:10:00,56.4,47.8,29.77,NW,315,0.0,2.0,73,0.00,,,0.06,WUHU216HW,2013-02-11 22:10:00,
2013-02-11 16:15:00,56.1,47.5,29.77,NNW,338,0.0,2.9,73,0.00,,,0.06,WUHU216HW,2013-02-11 22:15:00,
2013-02-11 16:20:00,56.1,47.8,29.77,West,270,0.0,2.9,74,0.00,,,0.06,WUHU216HW,2013-02-11 22:20:00,
2013-02-11 16:25:00,55.9,47.7,29.77,West,270,0.0,0.0,74,0.00,,,0.06,WUHU216HW,2013-02-11 22:25:00,
2013-02-11 16:30:00,56.1,48.2,29.77,WNW,293,0.0,1.5,75,0.00,,,0.06,WUHU216HW,2013-02-11 22:30:00,
2013-02-11 16:35:00,56.1,47.8,29.77,NW,315,3.1,3.3,74,0.00,,,0.06,WUHU216HW,2013-02-11 22:35:00,
2013-02-11 16:40:00,55.9,47.3,29.77,North,0,1.5,3.3,73,0.00,,,0.06,WUHU216HW,2013-02-11 22:40:00,
2013-02-11 16:45:00,55.9,47.7,29.78,NE,45,0.0,2.0,74,0.00,,,0.06,WUHU216HW,2013-02-11 22:45:00,
2013-02-11 16:50:00,55.9,47.7,29.78,ENE,68,3.5,3.5,74,0.00,,,0.06,WUHU216HW,2013-02-11 22:50:00,
2013-02-11 16:55:00,55.9,47.3,29.77,NNE,23,4.6,4.6,73,0.00,,,0.06,WUHU216HW,2013-02-11 22:55:00,
2013-02-11 17:00:00,55.5,47.0,29.77,NNE,23,2.9,4.6,73,0.00,,,0.06,WUHU216HW,2013-02-11 23:00:00,
2013-02-11 17:05:00,55.4,46.8,29.78,NNW,338,4.6,4.6,73,0.00,,,0.06,WUHU216HW,2013-02-11 23:05:00,
2013-02-11 17:10:00,55.2,46.7,29.77,North,0,0.0,4.6,73,0.00,,,0.06,WUHU216HW,2013-02-11 23:10:00,
2013-02-11 17:15:00,55.2,46.7,29.78,NNE,23,0.0,1.1,73,0.00,,,0.06,WUHU216HW,2013-02-11 23:15:00,
2013-02-11 17:20:00,55.0,46.8,29.78,NE,45,0.0,0.0,74,0.00,,,0.06,WUHU216HW,2013-02-11 23:20:00,
2013-02-11 17:25:00,55.0,46.8,29.78,NE,45,0.8,0.8,74,0.00,,,0.06,WUHU216HW,2013-02-11 23:25:00,
2013-02-11 17:30:00,55.0,46.8,29.78,North,0,2.2,2.2,74,0.00,,,0.06,WUHU216HW,2013-02-11 23:30:00,
2013-02-11 17:35:00,55.0,46.8,29.78,North,0,2.0,2.2,74,0.00,,,0.06,WUHU216HW,2013-02-11 23:35:00,
2013-02-11 17:40:00,55.0,46.8,29.78,ENE,68,0.8,5.5,74,0.00,,,0.06,WUHU216HW,2013-02-11 23:40:00,
2013-02-11 17:45:00,55.0,46.8,29.78,NE,45,0.0,5.5,74,0.00,,,0.06,WUHU216HW,2013-02-11 23:45:00,
2013-02-11 17:50:00,55.0,46.8,29.78,NNE,23,1.1,5.3,74,0.00,,,0.06,WUHU216HW,2013-02-11 23:50:00,
2013-02-11 17:55:00,55.0,46.8,29.78,North,0,4.9,4.9,74,0.00,,,0.06,WUHU216HW,2013-02-11 23:55:00,
2013-02-11 18:00:00,55.0,46.8,29.78,NNE,23,4.2,4.9,74,0.00,,,0.06,WUHU216HW,2013-02-12 00:00:00,
2013-02-11 18:05:00,54.8,46.7,29.78,NE,45,0.0,4.2,74,0.00,,,0.06,WUHU216HW,2013-02-12 00:05:00,
2013-02-11 18:10:00,54.8,46.7,29.78,North,0,3.1,4.2,74,0.00,,,0.06,WUHU216HW,2013-02-12 00:10:00,
2013-02-11 18:15:00,54.6,46.5,29.78,NNE,23,0.8,3.1,74,0.00,,,0.06,WUHU216HW,2013-02-12 00:15:00,
2013-02-11 18:20:00,54.6,46.5,29.78,ENE,68,1.5,1.5,74,0.00,,,0.06,WUHU216HW,2013-02-12 00:20:00,
2013-02-11 18:25:00,54.6,46.1,29.78,NNE,23,0.0,2.4,73,0.00,,,0.06,WUHU216HW,2013-02-12 00:25:00,
2013-02-11 18:30:00,54.5,46.3,29.78,NNE,23,2.6,3.3,74,0.00,,,0.06,WUHU216HW,2013-02-12 00:30:00,
2013-02-11 18:35:00,54.5,46.3,29.78,NE,45,2.2,3.3,74,0.00,,,0.06,WUHU216HW,2013-02-12 00:35:00,
2013-02-11 18:40:00,54.5,46.3,29.78,NNE,23,0.0,2.6,74,0.00,,,0.06,WUHU216HW,2013-02-12 00:40:00,
2013-02-11 18:45:00,54.5,46.3,29.78,NE,45,0.0,1.1,74,0.00,,,0.06,WUHU216HW,2013-02-12 00:45:00,
2013-02-11 18:50:00,54.3,46.1,29.78,NNE,23,1.7,1.7,74,0.00,,,0.06,WUHU216HW,2013-02-12 00:50:00,
2013-02-11 18:55:00,54.3,46.1,29.78,NE,45,0.0,2.4,74,0.00,,,0.06,WUHU216HW,2013-02-12 00:55:00,
2013-02-11 19:00:00,54.3,46.1,29.78,NNE,23,1.3,2.4,74,0.00,,,0.06,WUHU216HW,2013-02-12 01:00:00,
2013-02-11 19:05:00,54.3,46.1,29.78,NNE,23,0.6,1.3,74,0.00,,,0.06,WUHU216HW,2013-02-12 01:05:00,
2013-02-11 19:10:00,54.1,46.3,29.78,NE,45,1.5,1.5,75,0.00,,,0.06,WUHU216HW,2013-02-12 01:10:00,
2013-02-11 19:15:00,54.1,46.3,29.78,NNE,23,2.2,2.2,75,0.00,,,0.06,WUHU216HW,2013-02-12 01:15:00,
2013-02-11 19:20:00,54.1,46.3,29.78,NE,45,2.4,4.2,75,0.00,,,0.06,WUHU216HW,2013-02-12 01:20:00,
2013-02-11 19:25:00,53.9,46.2,29.78,NNE,23,2.9,4.2,75,0.00,,,0.06,WUHU216HW,2013-02-12 01:25:00,
2013-02-11 19:30:00,53.9,46.5,29.78,NE,45,2.9,6.7,76,0.00,,,0.06,WUHU216HW,2013-02-12 01:30:00,
2013-02-11 19:35:00,53.7,46.3,29.78,NNE,23,0.8,6.7,76,0.00,,,0.06,WUHU216HW,2013-02-12 01:35:00,
2013-02-11 19:40:00,53.7,46.3,29.78,NE,45,0.0,4.4,76,0.00,,,0.06,WUHU216HW,2013-02-12 01:40:00,
2013-02-11 19:45:00,53.7,46.3,29.78,North,0,0.0,4.4,76,0.00,,,0.06,WUHU216HW,2013-02-12 01:45:00,
2013-02-11 19:50:00,53.7,46.3,29.78,NNE,23,0.0,1.1,76,0.00,,,0.06,WUHU216HW,2013-02-12 01:50:00,
2013-02-11 19:55:00,53.7,46.3,29.78,NE,45,1.1,4.6,76,0.00,,,0.06,WUHU216HW,2013-02-12 01:55:00,
2013-02-11 20:00:00,53.6,46.5,29.78,NNE,23,2.4,4.6,77,0.00,,,0.06,WUHU216HW,2013-02-12 02:00:00,
2013-02-11 20:05:00,53.4,46.4,29.78,NE,45,1.1,2.4,77,0.00,,,0.06,WUHU216HW,2013-02-12 02:05:00,
2013-02-11 20:10:00,53.4,46.4,29.78,NE,45,0.0,4.0,77,0.00,,,0.06,WUHU216HW,2013-02-12 02:10:00,
2013-02-11 20:15:00,53.4,46.4,29.78,NE,45,0.0,4.0,77,0.00,,,0.06,WUHU216HW,2013-02-12 02:15:00,
2013-02-11 20:20:00,53.4,46.4,29.78,NE,45,0.0,3.5,77,0.00,,,0.06,WUHU216HW,2013-02-12 02:20:00,
2013-02-11 20:25:00,53.4,46.7,29.78,NNE,23,0.0,0.4,78,0.00,,,0.06,WUHU216HW,2013-02-12 02:25:00,
2013-02-11 20:30:00,53.4,46.7,29.78,NE,45,0.0,0.0,78,0.00,,,0.06,WUHU216HW,2013-02-12 02:30:00,
2013-02-11 20:35:00,53.4,46.7,29.78,North,0,0.0,3.3,78,0.00,,,0.06,WUHU216HW,2013-02-12 02:35:00,
2013-02-11 20:40:00,53.4,46.8,29.78,NE,45,1.3,3.3,78,0.00,,,0.06,WUHU216HW,2013-02-12 02:40:00,
2013-02-11 20:45:00,53.4,46.7,29.78,NNE,23,0.0,1.3,78,0.00,,,0.06,WUHU216HW,2013-02-12 02:45:00,
2013-02-11 20:50:00,53.4,46.7,29.77,NNE,23,1.1,1.3,78,0.00,,,0.06,WUHU216HW,2013-02-12 02:50:00,
2013-02-11 20:55:00,53.4,46.7,29.77,NNE,23,3.1,4.6,78,0.00,,,0.06,WUHU216HW,2013-02-12 02:55:00,
2013-02-11 21:00:00,53.2,46.5,29.77,North,0,3.5,4.6,78,0.00,,,0.06,WUHU216HW,2013-02-12 03:00:00,
2013-02-11 21:05:00,53.2,46.5,29.77,ENE,68,0.0,3.5,78,0.00,,,0.06,WUHU216HW,2013-02-12 03:05:00,
2013-02-11 21:10:00,53.2,46.5,29.77,NNE,23,0.0,3.5,78,0.00,,,0.06,WUHU216HW,2013-02-12 03:10:00,
2013-02-11 21:15:00,53.2,46.5,29.77,NNE,23,6.7,6.7,78,0.00,,,0.06,WUHU216HW,2013-02-12 03:15:00,
2013-02-11 21:20:00,53.2,46.5,29.77,NE,45,2.2,6.7,78,0.00,,,0.06,WUHU216HW,2013-02-12 03:20:00,
2013-02-11 21:25:00,53.2,46.5,29.76,NNE,23,4.0,6.7,78,0.00,,,0.06,WUHU216HW,2013-02-12 03:25:00,
2013-02-11 21:30:00,53.2,46.5,29.76,NNE,23,2.9,4.0,78,0.00,,,0.06,WUHU216HW,2013-02-12 03:30:00,
2013-02-11 21:35:00,53.2,46.5,29.76,NNE,23,1.3,4.0,78,0.00,,,0.06,WUHU216HW,2013-02-12 03:35:00,
2013-02-11 21:40:00,53.2,46.5,29.77,NNE,23,0.0,2.9,78,0.00,,,0.06,WUHU216HW,2013-02-12 03:40:00,
2013-02-11 21:45:00,53.2,46.5,29.76,NE,45,0.0,0.0,78,0.00,,,0.06,WUHU216HW,2013-02-12 03:45:00,
2013-02-11 21:50:00,53.2,46.5,29.77,North,0,1.1,1.1,78,0.00,,,0.06,WUHU216HW,2013-02-12 03:50:00,
2013-02-11 21:55:00,53.2,46.5,29.76,North,0,0.0,2.6,78,0.00,,,0.06,WUHU216HW,2013-02-12 03:55:00,
2013-02-11 22:00:00,53.2,46.2,29.76,NE,45,1.3,2.6,77,0.00,,,0.06,WUHU216HW,2013-02-12 04:00:00,
2013-02-11 22:05:00,53.0,46.0,29.76,North,0,0.0,1.5,77,0.00,,,0.06,WUHU216HW,2013-02-12 04:05:00,
2013-02-11 22:10:00,52.8,45.8,29.76,NE,45,0.0,1.3,77,0.00,,,0.06,WUHU216HW,2013-02-12 04:10:00,
2013-02-11 22:15:00,53.0,46.0,29.76,NE,45,2.2,2.2,77,0.00,,,0.06,WUHU216HW,2013-02-12 04:15:00,
2013-02-11 22:20:00,52.8,45.8,29.76,NNE,23,0.0,2.2,77,0.00,,,0.06,WUHU216HW,2013-02-12 04:20:00,
2013-02-11 22:25:00,53.0,45.6,29.76,ENE,68,2.9,2.9,76,0.00,,,0.06,WUHU216HW,2013-02-12 04:25:00,
2013-02-11 22:30:00,53.2,45.8,29.76,West,270,0.0,5.1,76,0.00,,,0.06,WUHU216HW,2013-02-12 04:30:00,
2013-02-11 22:35:00,53.2,45.8,29.76,ESE,113,0.0,5.1,76,0.00,,,0.06,WUHU216HW,2013-02-12 04:35:00,
2013-02-11 22:40:00,53.2,45.5,29.76,North,0,0.0,0.0,75,0.00,,,0.06,WUHU216HW,2013-02-12 04:40:00,
2013-02-11 22:45:00,53.2,45.5,29.76,East,90,0.6,1.1,75,0.00,,,0.06,WUHU216HW,2013-02-12 04:45:00,
2013-02-11 22:50:00,53.2,45.5,29.76,ENE,68,0.0,1.1,75,0.00,,,0.06,WUHU216HW,2013-02-12 04:50:00,
2013-02-11 22:55:00,53.2,45.8,29.76,NNE,23,0.0,0.6,76,0.00,,,0.06,WUHU216HW,2013-02-12 04:55:00,
2013-02-11 23:00:00,53.2,45.8,29.76,ESE,113,0.0,0.0,76,0.00,,,0.06,WUHU216HW,2013-02-12 05:00:00,
2013-02-11 23:05:00,53.2,45.5,29.76,North,0,1.3,1.3,75,0.00,,,0.06,WUHU216HW,2013-02-12 05:05:00,
2013-02-11 23:10:00,53.2,45.5,29.76,ESE,113,4.0,4.0,76,0.00,,,0.06,WUHU216HW,2013-02-12 05:10:00,
2013-02-11 23:15:00,53.2,45.8,29.76,SE,135,1.1,4.0,76,0.00,,,0.06,WUHU216HW,2013-02-12 05:15:00,
2013-02-11 23:20:00,53.2,45.8,29.76,NNE,23,0.0,4.0,76,0.00,,,0.06,WUHU216HW,2013-02-12 05:20:00,
2013-02-11 23:25:00,53.2,45.8,29.76,East,90,2.9,2.9,76,0.00,,,0.06,WUHU216HW,2013-02-12 05:25:00,
2013-02-11 23:30:00,53.2,45.8,29.76,East,90,1.3,2.9,76,0.00,,,0.06,WUHU216HW,2013-02-12 05:30:00,
2013-02-11 23:35:00,53.2,45.8,29.76,East,90,1.3,2.9,76,0.00,,,0.06,WUHU216HW,2013-02-12 05:35:00,
2013-02-11 23:40:00,53.2,45.8,29.76,ENE,68,0.8,2.0,76,0.00,,,0.06,WUHU216HW,2013-02-12 05:40:00,
2013-02-11 23:45:00,52.8,45.5,29.76,ENE,68,1.3,2.0,76,0.00,,,0.06,WUHU216HW,2013-02-12 05:45:00,
2013-02-11 23:50:00,52.8,45.8,29.76,East,90,5.8,5.8,77,0.00,,,0.06,WUHU216HW,2013-02-12 05:50:00,
2013-02-11 23:55:00,52.8,45.8,29.76,ESE,113,4.0,5.8,77,0.00,,,0.06,WUHU216HW,2013-02-12 05:55:00,